GW0484 Weather Reports


Display with metric or nautical units.
time (UTC)temp
F
wind
direction
speed
MPH
gust
MPH
rain 1hr
in
rain 24hr
in
rain mn
in
humidity
%
barometer
mb
20260904225109 72 122 3.0 5.0 0.00 0.00 0.00 38 1008.4
20260904224603 72 147 2.0 3.0 0.00 0.00 0.00 37 1008.4
20260904224058 71 135 1.0 1.0 0.00 0.00 0.00 38 1008.2
20260904223557 72 85 5.0 9.0 0.00 0.00 0.00 38 1008.4
20260904223053 74 190 3.0 6.0 0.00 0.00 0.00 36 1008.3
20260904222548 72 150 2.0 3.0 0.00 0.00 0.00 37 1008.2
20260904222044 73 295 11.0 11.0 0.00 0.00 0.00 37 1008.1
20260904221538 73 228 3.0 3.0 0.00 0.00 0.00 37 1008.3
20260904221033 72 302 4.0 8.0 0.00 0.00 0.00 38 1008.1
20260904220532 72 13 4.0 5.0 0.00 0.00 0.00 38 1008.0
20260904220028 72 135 2.0 3.0 0.00 0.00 0.00 37 1008.0
20260904215528 72 234 6.0 8.0 0.00 0.00 0.00 38 1007.9
20260904215024 73 132 3.0 5.0 0.00 0.00 0.00 38 1008.1
20260904214519 74 251 5.0 9.0 0.00 0.00 0.00 36 1008.0
20260904214015 73 286 16.0 20.0 0.00 0.00 0.00 36 1008.0
20260904213512 74 295 16.0 20.0 0.00 0.00 0.00 36 1008.0
20260904213010 74 129 8.0 13.0 0.00 0.00 0.00 37 1007.9
20260904212508 74 312 20.0 24.0 0.00 0.00 0.00 35 1007.8
20260904212004 74 307 13.0 16.0 0.00 0.00 0.00 35 1007.7
20260904211458 74 141 6.0 8.0 0.00 0.00 0.00 36 1007.6
20260904210954 73 304 12.0 16.0 0.00 0.00 0.00 37 1007.5
20260904210453 74 321 14.0 16.0 0.00 0.00 0.00 36 1007.5
20260904205948 74 316 12.0 16.0 0.00 0.00 0.00 37 1007.3
20260904205444 74 313 6.0 8.0 0.00 0.00 0.00 36 1007.2
20260904204941 74 322 11.0 16.0 0.00 0.00 0.00 36 1007.2
20260904204436 73 311 10.0 17.0 0.00 0.00 0.00 37 1007.0
20260904203932 73 293 16.0 21.0 0.00 0.00 0.00 37 1007.0
20260904203429 73 318 15.0 18.0 0.00 0.00 0.00 36 1007.0
20260904202924 73 308 18.0 21.0 0.00 0.00 0.00 36 1007.1
20260904202420 74 298 13.0 16.0 0.00 0.00 0.00 36 1007.1
20260904201916 73 304 7.0 13.0 0.00 0.00 0.00 37 1006.8
20260904201411 73 305 14.0 17.0 0.00 0.00 0.00 36 1006.8
20260904200907 73 317 14.0 17.0 0.00 0.00 0.00 36 1006.8
20260904200405 73 297 14.0 18.0 0.00 0.00 0.00 36 1006.8
20260904195900 73 296 13.0 15.0 0.00 0.00 0.00 37 1006.7
20260904195358 73 297 14.0 17.0 0.00 0.00 0.00 37 1006.6
20260904194853 73 284 14.0 16.0 0.00 0.00 0.00 38 1006.5
20260904194352 73 290 11.0 16.0 0.00 0.00 0.00 38 1006.6
20260904193848 73 250 12.0 14.0 0.00 0.00 0.00 37 1006.5
20260904193343 72 80 11.0 13.0 0.00 0.00 0.00 38 1006.4
20260904192838 71 350 14.0 16.0 0.00 0.00 0.00 39 1006.3
20260904192333 71 316 15.0 16.0 0.00 0.00 0.00 38 1006.3
20260904191830 71 282 14.0 16.0 0.00 0.00 0.00 39 1006.0
20260904191326 71 332 14.0 16.0 0.00 0.00 0.00 38 1006.1
20260904190823 70 310 15.0 18.0 0.00 0.00 0.00 39 1005.8
20260904190318 71 3 6.0 8.0 0.00 0.00 0.00 42 1005.9
20260904185814 70 290 6.0 8.0 0.00 0.00 0.00 42 1005.9
20260904185310 68 279 6.0 7.0 0.00 0.00 0.00 43 1005.8
20260904184809 68 219 6.0 8.0 0.00 0.00 0.00 44 1005.8
20260904184304 67 311 10.0 13.0 0.00 0.00 0.00 43 1006.0
20260904183759 67 282 10.0 11.0 0.00 0.00 0.00 45 1005.9
20260904183254 66 319 7.0 9.0 0.00 0.00 0.00 46 1005.8
20260904182749 66 289 10.0 13.0 0.00 0.00 0.00 46 1005.8
20260904182244 66 267 9.0 10.0 0.00 0.00 0.00 47 1006.0
20260904181740 67 299 9.0 9.0 0.00 0.00 0.00 46 1005.8
20260904181239 67 294 8.0 9.0 0.00 0.00 0.00 46 1005.7
20260904180735 66 290 9.0 10.0 0.00 0.00 0.00 46 1005.8
20260904180230 64 283 10.0 13.0 0.00 0.00 0.00 48 1005.8
20260904175729 64 297 11.0 15.0 0.00 0.00 0.00 49 1005.9
20260904175228 63 243 10.0 11.0 0.00 0.00 0.00 51 1005.6
20260904174723 63 269 9.0 10.0 0.00 0.00 0.00 51 1005.5
20260904174219 63 286 12.0 14.0 0.00 0.00 0.00 51 1005.7
20260904173715 63 226 10.0 11.0 0.00 0.00 0.00 52 1005.7
20260904173214 63 262 8.0 10.0 0.00 0.00 0.00 53 1005.6
20260904172711 63 277 9.0 10.0 0.00 0.00 0.00 53 1005.4
20260904172210 64 302 10.0 13.0 0.00 0.00 0.00 52 1005.3
20260904171706 64 251 11.0 13.0 0.00 0.00 0.00 50 1005.4
20260904171201 64 229 7.0 8.0 0.00 0.00 0.00 52 1005.2
20260904170657 64 246 7.0 8.0 0.00 0.00 0.00 50 1005.1
20260904170152 64 242 6.0 7.0 0.00 0.00 0.00 49 1004.9
20260904165651 64 267 3.0 3.0 0.00 0.00 0.00 48 1004.9
20260904165150 63 263 5.0 6.0 0.00 0.00 0.00 49 1005.1
20260904164646 63 279 5.0 5.0 0.00 0.00 0.00 48 1005.2
20260904164140 63 319 3.0 5.0 0.00 0.00 0.00 50 1004.9
20260904163636 62 279 5.0 6.0 0.00 0.00 0.00 50 1004.9
20260904163126 62 310 4.0 5.0 0.00 0.00 0.00 51 1004.9
20260904162625 62 189 5.0 6.0 0.00 0.00 0.00 52 1005.1
20260904162120 62 233 5.0 6.0 0.00 0.00 0.00 53 1004.9
20260904161616 61 267 7.0 8.0 0.00 0.00 0.00 53 1004.8
20260904161111 61 304 7.0 7.0 0.00 0.00 0.00 54 1004.9
20260904160606 61 279 10.0 10.0 0.00 0.00 0.00 54 1004.8
20260904155602 60 245 11.0 13.0 0.00 0.00 0.00 57 1004.5
20260904155056 60 267 10.0 13.0 0.00 0.00 0.00 59 1004.4
20260904154550 60 242 10.0 16.0 0.00 0.00 0.00 60 1004.5
20260904154045 61 231 7.0 8.0 0.00 0.00 0.00 59 1004.3
20260904153544 61 229 6.0 7.0 0.00 0.00 0.00 53 1004.3
20260904153041 60 221 5.0 6.0 0.00 0.00 0.00 54 1004.0
20260904152536 60 194 4.0 5.0 0.00 0.00 0.00 54 1003.6
20260904152032 61 224 5.0 6.0 0.00 0.00 0.00 54 1003.6
20260904151526 61 194 3.0 3.0 0.00 0.00 0.00 55 1003.7
20260904151020 61 168 1.0 2.0 0.00 0.00 0.00 56 1003.5
20260904150515 61 147 0.0 1.0 0.00 0.00 0.00 54 1003.2
20260904150009 61 127 0.0 0.0 0.00 0.00 0.00 57 1003.1
20260904145504 60 114 1.0 2.0 0.00 0.00 0.00 55 1002.9
20260904144959 60 59 4.0 5.0 0.00 0.00 0.00 55 1003.0
20260904144454 59 70 3.0 3.0 0.00 0.00 0.00 57 1002.8
20260904143950 58 52 3.0 3.0 0.00 0.00 0.00 60 1002.8
20260904143446 57 12 4.0 5.0 0.00 0.00 0.00 61 1002.7
20260904142942 56 118 0.0 1.0 0.00 0.00 0.00 65 1003.1
20260904142438 56 124 0.0 0.0 0.00 0.00 0.00 67 1003.1
20260904141933 56 283 3.0 3.0 0.00 0.00 0.00 67 1003.1
20260904141428 56 131 0.0 1.0 0.00 0.00 0.00 62 1002.9
20260904140925 55 44 3.0 3.0 0.00 0.00 0.00 65 1002.9
20260904140425 55 90 2.0 2.0 0.00 0.00 0.00 70 1003.0
20260904135923 54 179 2.0 3.0 0.00 0.00 0.00 71 1003.3
20260904135423 54 140 0.0 0.0 0.00 0.00 0.00 69 1003.2
20260904134920 54 165 2.0 2.0 0.00 0.00 0.00 69 1003.3
20260904134419 54 116 0.0 1.0 0.00 0.00 0.00 69 1003.1
20260904133914 54 86 2.0 2.0 0.00 0.00 0.00 70 1003.0
20260904133414 54 214 3.0 3.0 0.00 0.00 0.00 69 1003.1
20260904132910 53 101 1.0 2.0 0.00 0.00 0.00 69 1003.0
20260904132405 54 259 5.0 6.0 0.00 0.00 0.00 69 1003.4
20260904131904 55 223 3.0 5.0 0.00 0.00 0.00 67 1003.2
20260904131400 56 163 1.0 1.0 0.00 0.00 0.00 64 1003.4
20260904130855 57 147 1.0 1.0 0.00 0.00 0.00 61 1003.1
20260904130354 57 109 1.0 1.0 0.00 0.00 0.00 58 1003.3
20260904125849 57 106 1.0 1.0 0.00 0.00 0.00 59 1002.9
20260904125346 56 38 3.0 3.0 0.00 0.00 0.00 59 1003.0
20260904124844 55 62 3.0 3.0 0.00 0.00 0.00 60 1002.8
20260904124342 55 124 0.0 0.0 0.00 0.00 0.00 62 1002.7
20260904123837 55 129 0.0 0.0 0.00 0.00 0.00 63 1002.7
20260904123332 55 24 1.0 2.0 0.00 0.00 0.00 63 1002.5
20260904122827 55 129 1.0 1.0 0.00 0.00 0.00 62 1002.5
20260904122327 55 35 3.0 5.0 0.00 0.00 0.00 62 1002.5
20260904121821 56 39 5.0 6.0 0.00 0.00 0.00 61 1002.4
20260904121318 56 21 6.0 7.0 0.00 0.00 0.00 61 1002.5
20260904120814 56 55 5.0 5.0 0.00 0.00 0.00 61 1002.5
20260904120309 55 30 4.0 5.0 0.00 0.00 0.00 62 1002.5
20260904115804 54 86 3.0 5.0 0.00 0.00 0.00 63 1002.8
20260904115300 54 126 0.0 0.0 0.00 0.00 0.00 66 1002.9
20260904114754 54 127 0.0 0.0 0.00 0.00 0.00 65 1002.5
20260904114254 55 123 0.0 0.0 0.00 0.00 0.00 63 1002.7
20260904113749 56 26 4.0 5.0 0.00 0.00 0.00 61 1002.9
20260904113248 56 36 5.0 6.0 0.00 0.00 0.00 60 1002.8
20260904112743 56 69 3.0 3.0 0.00 0.00 0.00 61 1002.5
20260904112239 56 60 3.0 3.0 0.00 0.00 0.00 61 1002.7
20260904111735 56 55 3.0 5.0 0.00 0.00 0.00 61 1002.7
20260904111231 57 49 4.0 6.0 0.00 0.00 0.00 61 1002.8
20260904110726 57 31 6.0 7.0 0.00 0.00 0.00 59 1002.9
20260904110225 58 60 9.0 10.0 0.00 0.00 0.00 58 1002.8
20260904105720 59 54 10.0 11.0 0.00 0.00 0.00 57 1002.8
20260904105214 59 57 10.0 13.0 0.00 0.00 0.00 55 1002.9
20260904104710 59 56 11.0 11.0 0.00 0.00 0.00 54 1003.2
20260904104206 59 53 10.0 13.0 0.00 0.00 0.00 54 1003.2
20260904103702 59 35 7.0 10.0 0.00 0.00 0.00 54 1003.2
20260904103157 59 22 7.0 9.0 0.00 0.00 0.00 55 1003.2
20260904102653 59 27 5.0 6.0 0.00 0.00 0.00 55 1003.3
20260904102148 59 47 8.0 9.0 0.00 0.00 0.00 55 1003.3
20260904101645 60 16 7.0 8.0 0.00 0.00 0.00 55 1003.4
20260904101140 60 27 6.0 7.0 0.00 0.00 0.00 54 1003.4
20260904100636 61 35 8.0 10.0 0.00 0.00 0.00 53 1003.5
20260904100131 61 25 9.0 11.0 0.00 0.00 0.00 51 1003.3
20260904095625 60 31 7.0 9.0 0.00 0.00 0.00 52 1003.3
20260904095126 60 20 5.0 7.0 0.00 0.00 0.00 54 1003.3
20260904094621 59 54 6.0 7.0 0.00 0.00 0.00 54 1003.3
20260904094116 59 55 6.0 8.0 0.00 0.00 0.00 55 1003.5
20260904093613 59 51 7.0 8.0 0.00 0.00 0.00 56 1003.3
20260904093112 58 46 10.0 13.0 0.00 0.00 0.00 56 1003.6
20260904092609 57 37 5.0 6.0 0.00 0.00 0.00 58 1003.4
20260904092105 57 37 5.0 6.0 0.00 0.00 0.00 60 1003.6
20260904091601 56 93 2.0 2.0 0.00 0.00 0.00 61 1003.7
20260904091100 56 37 4.0 5.0 0.00 0.00 0.00 62 1003.4
20260904090556 56 104 2.0 2.0 0.00 0.00 0.00 62 1003.7
20260904090051 56 55 2.0 3.0 0.00 0.00 0.00 62 1004.0
20260904085546 57 68 2.0 2.0 0.00 0.00 0.00 60 1003.7
20260904085045 57 65 5.0 7.0 0.00 0.00 0.00 60 1003.9
20260904084541 57 88 1.0 1.0 0.00 0.00 0.00 61 1004.2
20260904084037 57 110 1.0 1.0 0.00 0.00 0.00 60 1004.3
20260904083533 56 96 1.0 2.0 0.00 0.00 0.00 62 1004.3
20260904083029 55 21 2.0 2.0 0.00 0.00 0.00 65 1004.4
20260904082524 55 117 1.0 1.0 0.00 0.00 0.00 67 1004.4
20260904082019 55 119 0.0 0.0 0.00 0.00 0.00 67 1004.5
20260904081514 56 147 0.0 1.0 0.00 0.00 0.00 66 1004.6
20260904081010 56 148 0.0 1.0 0.00 0.00 0.00 65 1004.5
20260904080505 55 148 0.0 0.0 0.00 0.00 0.00 67 1004.5
20260904080001 54 156 1.0 2.0 0.00 0.00 0.00 69 1004.7
20260904075457 55 146 1.0 1.0 0.00 0.00 0.00 68 1004.8
20260904074956 55 143 0.0 0.0 0.00 0.00 0.00 63 1004.6
20260904074451 54 140 0.0 1.0 0.00 0.00 0.00 69 1004.7
20260904073946 55 116 0.0 1.0 0.00 0.00 0.00 67 1005.2
20260904073441 55 91 1.0 2.0 0.00 0.00 0.00 67 1004.8
20260904072937 55 96 2.0 2.0 0.00 0.00 0.00 67 1005.1
20260904072433 55 125 0.0 0.0 0.00 0.00 0.00 68 1004.9
20260904071927 55 127 0.0 0.0 0.00 0.00 0.00 68 1005.1
20260904071423 55 120 1.0 1.0 0.00 0.00 0.00 67 1005.2
20260904070918 55 127 0.0 0.0 0.00 0.00 0.00 66 1005.5
20260904070416 56 132 0.0 0.0 0.00 0.00 0.00 67 1005.3
20260904065910 56 124 0.0 0.0 0.00 0.00 0.00 67 1005.4
20260904065407 56 130 0.0 0.0 0.00 0.00 0.00 67 1005.3
20260904064906 56 131 1.0 2.0 0.00 0.00 0.00 65 1004.9
20260904064403 56 80 2.0 2.0 0.00 0.00 0.00 65 1005.3
20260904063858 56 120 1.0 1.0 0.00 0.00 0.00 66 1005.1
20260904063354 56 114 0.0 1.0 0.00 0.00 0.00 65 1005.3
20260904062849 56 112 0.0 0.0 0.00 0.00 0.00 65 1005.4
20260904062345 56 114 1.0 1.0 0.00 0.00 0.00 65 1005.2
20260904061841 57 125 0.0 0.0 0.00 0.00 0.00 65 1004.8
20260904061337 57 121 0.0 0.0 0.00 0.00 0.00 63 1005.2
20260904060833 57 99 1.0 2.0 0.00 0.00 0.00 62 1005.3
20260904060329 57 119 1.0 1.0 0.00 0.00 0.00 64 1005.1
20260904055824 57 121 0.0 1.0 0.00 0.00 0.00 64 1005.2
20260904055319 56 90 0.0 1.0 0.00 0.00 0.00 64 1005.1
20260904054814 56 127 0.0 0.0 0.00 0.00 0.00 64 1005.2
20260904054310 56 124 0.0 0.0 0.00 0.00 0.00 66 1005.4
20260904053800 56 133 0.0 0.0 0.00 0.00 0.00 66 1005.2
20260904053259 56 133 0.0 0.0 0.00 0.00 0.00 64 1005.4
20260904052756 56 129 0.0 0.0 0.00 0.00 0.00 63 1005.4
20260904052252 56 125 0.0 0.0 0.00 0.00 0.00 64 1005.8
20260904051748 56 132 0.0 0.0 0.00 0.00 0.00 64 1005.7
20260904051243 57 132 0.0 0.0 0.00 0.00 0.00 63 1006.0
20260904050738 57 127 0.0 0.0 0.00 0.00 0.00 62 1005.7
20260904050235 57 128 0.0 0.0 0.00 0.00 0.00 62 1005.9
20260904045734 57 125 0.0 1.0 0.00 0.00 0.00 62 1005.7
20260904045229 57 132 0.0 0.0 0.00 0.00 0.00 62 1005.7
20260904044724 58 132 0.0 1.0 0.00 0.00 0.00 61 1006.0
20260904044221 57 129 0.0 0.0 0.00 0.00 0.00 60 1005.8
20260904043717 57 134 0.0 0.0 0.00 0.00 0.00 60 1005.9
20260904043213 57 129 0.0 0.0 0.00 0.00 0.00 60 1005.9
20260904042709 57 127 0.0 0.0 0.00 0.00 0.00 60 1006.3
20260904042205 57 126 1.0 1.0 0.00 0.00 0.00 60 1006.0
20260904041704 57 121 1.0 1.0 0.00 0.00 0.00 60 1006.0
20260904041201 56 127 0.0 0.0 0.00 0.00 0.00 62 1005.8
20260904040656 56 126 0.0 1.0 0.00 0.00 0.00 62 1005.7
20260904040152 56 132 0.0 0.0 0.00 0.00 0.00 62 1005.6
20260904035647 56 114 0.0 0.0 0.00 0.00 0.00 60 1005.9
20260904035142 57 120 0.0 0.0 0.00 0.00 0.00 59 1005.8
20260904034641 56 6 4.0 5.0 0.00 0.00 0.00 58 1005.8
20260904034137 56 133 0.0 0.0 0.00 0.00 0.00 61 1005.5
20260904033633 55 133 0.0 1.0 0.00 0.00 0.00 61 1005.6
20260904033130 55 130 0.0 1.0 0.00 0.00 0.00 62 1005.7
20260904032626 55 108 1.0 1.0 0.00 0.00 0.00 62 1005.8
20260904032124 56 127 1.0 1.0 0.00 0.00 0.00 63 1005.9
20260904031624 57 130 0.0 0.0 0.00 0.00 0.00 60 1005.6
20260904031120 57 116 1.0 1.0 0.00 0.00 0.00 59 1005.8
20260904030616 58 92 3.0 3.0 0.00 0.00 0.00 57 1005.8
20260904030111 58 62 3.0 3.0 0.00 0.00 0.00 57 1005.6
20260904025607 59 126 0.0 1.0 0.00 0.00 0.00 56 1005.6
20260904025101 59 125 0.0 0.0 0.00 0.00 0.00 54 1005.4
20260904024557 60 99 2.0 2.0 0.00 0.00 0.00 54 1005.6
20260904024053 60 126 0.0 0.0 0.00 0.00 0.00 54 1005.5
20260904023549 61 110 0.0 1.0 0.00 0.00 0.00 52 1005.4
20260904023044 61 127 2.0 3.0 0.00 0.00 0.00 52 1005.2
20260904022539 62 134 0.0 0.0 0.00 0.00 0.00 52 1004.9
20260904022036 63 130 2.0 2.0 0.00 0.00 0.00 49 1005.1
20260904021531 64 49 6.0 7.0 0.00 0.00 0.00 46 1005.1
20260904021026 64 109 4.0 5.0 0.00 0.00 0.00 47 1005.3
20260904020526 64 81 4.0 5.0 0.00 0.00 0.00 47 1005.1
20260904020021 64 133 3.0 3.0 0.00 0.00 0.00 47 1004.9
20260904015515 65 47 3.0 3.0 0.00 0.00 0.00 47 1004.8
20260904015014 65 113 1.0 2.0 0.00 0.00 0.00 46 1004.7
20260904014509 66 132 0.0 0.0 0.00 0.00 0.00 45 1004.7
20260904014004 67 131 0.0 0.0 0.00 0.00 0.00 44 1004.6
20260904013501 68 129 0.0 0.0 0.00 0.00 0.00 43 1004.7
20260904012957 69 135 0.0 0.0 0.00 0.00 0.00 42 1004.6
20260904012456 70 146 1.0 1.0 0.00 0.00 0.00 40 1004.7
20260904011950 71 139 0.0 1.0 0.00 0.00 0.00 39 1004.5
20260904011445 71 130 0.0 0.0 0.00 0.00 0.00 39 1004.6
20260904010941 72 138 1.0 1.0 0.00 0.00 0.00 38 1004.6
20260904010437 72 143 3.0 6.0 0.00 0.00 0.00 37 1004.6
20260904005932 72 131 3.0 6.0 0.00 0.00 0.00 37 1004.7
20260904005428 72 145 1.0 2.0 0.00 0.00 0.00 36 1004.7
20260904004928 73 344 3.0 5.0 0.00 0.00 0.00 36 1004.6
20260904004424 73 66 4.0 7.0 0.00 0.00 0.00 36 1004.5
20260904003919 73 303 6.0 9.0 0.00 0.00 0.00 36 1004.7
20260904003414 74 82 3.0 5.0 0.00 0.00 0.00 36 1004.5
20260904002909 74 220 2.0 2.0 0.00 0.00 0.00 36 1004.7
20260904002406 74 136 2.0 2.0 0.00 0.00 0.00 36 1004.6
20260904001904 74 309 8.0 15.0 0.00 0.00 0.00 35 1004.7
20260904001400 75 299 5.0 11.0 0.00 0.00 0.00 35 1004.6
20260904000855 75 316 8.0 10.0 0.00 0.00 0.00 34 1004.6
20260904000355 75 306 13.0 15.0 0.00 0.00 0.00 34 1004.3
20260903235849 75 286 7.0 9.0 0.00 0.00 0.00 35 1004.2
20260903235345 75 321 7.0 8.0 0.00 0.00 0.00 34 1004.3
20260903234844 75 248 10.0 11.0 0.00 0.00 0.00 34 1004.4
20260903234340 75 91 3.0 5.0 0.00 0.00 0.00 35 1004.4
20260903233836 75 295 10.0 11.0 0.00 0.00 0.00 34 1004.3
20260903233332 75 328 7.0 9.0 0.00 0.00 0.00 34 1004.0
20260903232831 75 301 9.0 9.0 0.00 0.00 0.00 34 1004.1
20260903232327 76 326 6.0 7.0 0.00 0.00 0.00 35 1004.0
20260903231826 76 143 6.0 8.0 0.00 0.00 0.00 35 1004.0
20260903231322 76 292 11.0 13.0 0.00 0.00 0.00 34 1004.1
20260903230817 76 275 12.0 14.0 0.00 0.00 0.00 34 1004.1
20260903230312 76 308 7.0 8.0 0.00 0.00 0.00 34 1003.7
20260903225808 77 328 10.0 11.0 0.00 0.00 0.00 34 1004.1